Location: Guferjoch
(46.7462°N, 8.4506°E)
Time: 00:00:32
(UTC+00:00)

NPP - Pass Details

Date: 14 July 2020
Orbit: 826 x 828 km, 98.7° (Epoch: 03 August)

Event Time Altitude Azimuth Distance (km) Brightness Sun altitude
Rises 01:17:57 0° 14° (NNE) 3,377 8.4 -17.6°
Reaches altitude 10° 01:20:18 10° 15° (NNE) 2,439 7.3 -17.4°
Maximum altitude 01:25:44 86° 105° (ESE) 835 3.6 -17.0°
Enters shadow 01:28:51 26° 193° (SSW) 1,563 4.5 -16.7°
